Regional Weather Roundup
Issued by NWS

Home | Current Version | Previous Version | Graphics & Text | Print | Product List | Glossary On
Versions: 1 2 3 4 5 6 7 8 9 10 11 12 13 14 15 16 17 18 19 20 21 22 23 24 25 26 27 28 29 30 31 32 33 34 35 36 37 38 39 40 41 42 43 44 45 46 47 48 49 50
000
ASUS45 KSLC 310510
RWRUT

UTAH REGIONAL WEATHER ROUNDUP
NATIONAL WEATHER SERVICE SALT LAKE CITY UT
1100 PM MDT WED JUL 30 2014

UTZ001>011-023>025-310600-

NORTHERN UTAH

CITY           SKY/WX    TMP DP  RH WIND       PRES   REMARKS
HILL AFB       CLEAR     69  53  55 E8G18     30.22S
LOGAN          CLEAR     69  51  52 SW9       30.24R
OGDEN          CLEAR     71  51  49 CALM      30.20R
PROVO AIRPORT  CLEAR     72  52  49 CALM      30.21R
SALT LAKE CITY PTCLDY    72  53  51 SE6       30.17S
VERNAL         PTCLDY    64  50  60 N6        30.28S
WENDOVER       PTCLDY    75  54  46 NE7       30.20R
HEBER CITY     CLEAR     63  52  67 NE3       30.30R
WEST JORDAN    CLEAR     72  59  64 NE10      30.21R

$$

UTZ012>022-026-027-310600-

SOUTHERN UTAH

CITY           SKY/WX    TMP DP  RH WIND       PRES   REMARKS
BRYCE CANYON   PTCLDY    56  48  74 CALM      30.39R
CEDAR CITY     CLOUDY    72  52  49 SE3       30.23R
MILFORD        CLOUDY    76  51  41 N6        30.19R
MOAB/CYNLANDS  CLEAR     74  59  59 E7        30.14R
PRICE          PTCLDY    68  53  58 NW5       30.27R
ST GEORGE      CLEAR     91  48  22 CALM      30.00R
KANAB            N/A     73  52  46 NW13      30.20R

$$

REGIONAL REPORTS     COLORADO/ARIZONA

CITY           SKY/WX    TMP DP  RH WIND       PRES   REMARKS
CRAIG, CO      CLOUDY    57  56  96 E8        30.31F
GRAND JUNCTION CLOUDY    69  59  70 NW8       30.19R
RIFLE          MOCLDY    66  57  72 NW3       30.25R
MONTROSE       MOCLDY    70  54  56 S8        30.26R
CORTEZ         CLEAR     66  52  60 NE7       30.22R
PAGE, AZ       PTCLDY    86  46  24 CALM      30.08R
GRAND CANYON   PTCLDY    63  48  58 CALM      30.30R
KINGMAN        CLEAR     81  50  33 E6        30.04R
FLAGSTAFF      CLEAR     68  45  43 SW6       30.34R

$$

REGIONAL REPORTS    NEVADA/IDAHO/WYOMING

CITY           SKY/WX    TMP DP  RH WIND       PRES   REMARKS
LAS VEGAS, NV  PTCLDY    97  46  17 NW12G26   29.88R HX  93
ELY            MOCLDY    63  46  54 S3        30.29R
ELKO           MOCLDY    72  48  42 CALM      30.22R
POCATELLO, ID  CLEAR     67  49  52 SE5       30.24R
BURLEY         PTCLDY    70  52  52 E3        30.19R
EVANSTON, WY   PTCLDY    56  52  86 NE6       30.40S
ROCK SPRINGS   CLOUDY    56  45  66 N7        30.40S

$$


USA.gov is the U.S. government's official web portal to all federal, state and local government web resources and services.